JDI69 CYEG-CYMM

Flight info

Callsign JDI69
Flight time 0h 44m
Altitude 35000
Route EBLAR DCT KAVDA DCT LEXON LEXON5
Aircraft RJ70/M-SDFGIRWY/LB1

Departure

Time 2026-04-29 00:16
Airport Edmonton International Airport (CYEG)

Arrival

Time 2026-04-29 01:00
Airport Fort McMurray International Airport (CYMM)
Time Latitude Longitude Altitude Speed Heading
2026-04-28 23:45 53.32753 -113.56810 2342 ft 0 kts 303°
2026-04-29 00:06 53.32754 -113.56814 2342 ft 1 kts 283°
2026-04-29 00:07 53.32746 -113.56828 2342 ft 5 kts 222°
2026-04-29 00:07 53.32720 -113.56882 2342 ft 7 kts 233°
2026-04-29 00:07 53.32686 -113.56941 2342 ft 7 kts 218°
2026-04-29 00:07 53.32685 -113.57004 2342 ft 6 kts 308°
2026-04-29 00:08 53.32705 -113.57065 2342 ft 7 kts 269°
2026-04-29 00:08 53.32670 -113.57125 2342 ft 9 kts 210°
2026-04-29 00:08 53.32616 -113.57188 2342 ft 10 kts 215°
2026-04-29 00:08 53.32552 -113.57265 2342 ft 12 kts 215°
2026-04-29 00:09 53.32475 -113.57355 2342 ft 15 kts 215°
2026-04-29 00:09 53.32385 -113.57461 2342 ft 16 kts 215°
2026-04-29 00:09 53.32297 -113.57563 2342 ft 15 kts 215°
2026-04-29 00:09 53.32210 -113.57665 2342 ft 16 kts 215°
2026-04-29 00:10 53.32117 -113.57774 2341 ft 17 kts 215°
2026-04-29 00:10 53.32016 -113.57892 2342 ft 18 kts 215°
2026-04-29 00:10 53.31909 -113.58016 2342 ft 19 kts 215°
2026-04-29 00:10 53.31798 -113.58146 2341 ft 20 kts 215°
2026-04-29 00:11 53.31683 -113.58280 2341 ft 20 kts 215°
2026-04-29 00:11 53.31592 -113.58385 2342 ft 10 kts 215°
2026-04-29 00:11 53.31657 -113.58450 2344 ft 6 kts 348°
2026-04-29 00:12 53.31683 -113.58458 2342 ft 0 kts 348°
2026-04-29 00:13 53.31690 -113.58461 2344 ft 4 kts 348°
2026-04-29 00:13 53.31743 -113.58478 2341 ft 11 kts 352°
2026-04-29 00:13 53.31822 -113.58514 2338 ft 8 kts 358°
2026-04-29 00:14 53.31874 -113.58474 2337 ft 9 kts 35°
2026-04-29 00:14 53.31880 -113.58466 2337 ft 1 kts 35°
2026-04-29 00:14 53.31881 -113.58465 2337 ft 0 kts 35°
2026-04-29 00:15 53.31883 -113.58463 2337 ft 3 kts 35°
2026-04-29 00:15 53.31949 -113.58385 2336 ft 20 kts 35°
2026-04-29 00:15 53.32171 -113.58126 2342 ft 77 kts 35°
2026-04-29 00:16 53.32824 -113.57373 2448 ft 138 kts 35°
2026-04-29 00:16 53.33642 -113.56365 3053 ft 157 kts 39°
2026-04-29 00:16 53.34575 -113.55173 3770 ft 178 kts 38°
2026-04-29 00:16 53.35665 -113.53844 4443 ft 212 kts 36°
2026-04-29 00:17 53.36939 -113.52348 5313 ft 231 kts 33°
2026-04-29 00:17 53.38271 -113.50846 5874 ft 236 kts 34°
2026-04-29 00:17 53.39714 -113.49230 5967 ft 258 kts 32°
2026-04-29 00:17 53.41201 -113.47587 5997 ft 255 kts 32°
2026-04-29 00:18 53.42689 -113.45927 6018 ft 255 kts 32°
2026-04-29 00:18 53.44176 -113.44231 6478 ft 261 kts 33°
2026-04-29 00:18 53.45648 -113.42531 7778 ft 258 kts 33°
2026-04-29 00:18 53.47121 -113.40765 8973 ft 262 kts 33°
2026-04-29 00:19 53.48589 -113.38917 10183 ft 266 kts 33°
2026-04-29 00:19 53.50076 -113.37026 11226 ft 270 kts 33°
2026-04-29 00:19 53.51587 -113.35114 12218 ft 275 kts 33°
2026-04-29 00:19 53.53158 -113.33107 12891 ft 292 kts 34°
2026-04-29 00:20 53.54816 -113.30981 13372 ft 309 kts 34°
2026-04-29 00:20 53.56563 -113.28741 13780 ft 323 kts 34°
2026-04-29 00:20 53.58377 -113.26403 14193 ft 332 kts 34°
2026-04-29 00:20 53.60210 -113.23995 14696 ft 336 kts 34°
2026-04-29 00:21 53.62072 -113.21588 15193 ft 339 kts 34°
2026-04-29 00:21 53.63951 -113.19163 15681 ft 342 kts 34°
2026-04-29 00:21 53.65841 -113.16681 16178 ft 346 kts 35°
2026-04-29 00:21 53.67753 -113.14190 16668 ft 349 kts 34°
2026-04-29 00:22 53.69693 -113.11688 17166 ft 353 kts 35°
2026-04-29 00:22 53.71638 -113.09145 17666 ft 355 kts 33°
2026-04-29 00:22 53.73779 -113.07074 18144 ft 355 kts 22°
2026-04-29 00:22 53.76069 -113.05453 18612 ft 358 kts 19°
2026-04-29 00:23 53.78398 -113.03936 19095 ft 360 kts 19°
2026-04-29 00:23 53.80728 -113.02479 19503 ft 364 kts 18°
2026-04-29 00:23 53.83121 -113.01028 19961 ft 366 kts 17°
2026-04-29 00:23 53.85528 -112.99556 20419 ft 369 kts 18°
2026-04-29 00:24 53.87943 -112.98044 20869 ft 372 kts 18°
2026-04-29 00:24 53.90378 -112.96516 21311 ft 374 kts 18°
2026-04-29 00:24 53.92825 -112.94969 21741 ft 377 kts 18°
2026-04-29 00:24 53.95285 -112.93406 22158 ft 379 kts 19°
2026-04-29 00:25 53.97757 -112.91787 22565 ft 382 kts 19°
2026-04-29 00:25 54.00246 -112.90187 22951 ft 384 kts 18°
2026-04-29 00:25 54.02756 -112.88581 23353 ft 386 kts 18°
2026-04-29 00:25 54.05276 -112.86971 23724 ft 388 kts 18°
2026-04-29 00:26 54.07773 -112.85331 24040 ft 390 kts 19°
2026-04-29 00:26 54.10312 -112.83683 24359 ft 392 kts 18°
2026-04-29 00:26 54.12857 -112.82050 24751 ft 390 kts 18°
2026-04-29 00:26 54.15410 -112.80408 25064 ft 392 kts 19°
2026-04-29 00:27 54.17957 -112.78720 25345 ft 394 kts 19°
2026-04-29 00:27 54.20517 -112.77039 25693 ft 394 kts 19°
2026-04-29 00:27 54.23080 -112.75391 26077 ft 393 kts 19°
2026-04-29 00:27 54.25629 -112.73717 26460 ft 392 kts 19°
2026-04-29 00:28 54.28153 -112.72059 27008 ft 386 kts 19°
2026-04-29 00:28 54.30653 -112.70446 27482 ft 382 kts 19°
2026-04-29 00:28 54.33134 -112.68807 27888 ft 381 kts 19°
2026-04-29 00:28 54.35601 -112.67185 28281 ft 380 kts 19°
2026-04-29 00:29 54.38065 -112.65583 28649 ft 378 kts 19°
2026-04-29 00:29 54.40516 -112.63955 28984 ft 377 kts 19°
2026-04-29 00:29 54.42959 -112.62354 29127 ft 377 kts 19°
2026-04-29 00:30 54.47915 -112.59101 29177 ft 391 kts 19°
2026-04-29 00:30 54.53098 -112.55660 29209 ft 402 kts 19°
2026-04-29 00:31 54.58259 -112.52223 29186 ft 399 kts 19°
2026-04-29 00:31 54.63449 -112.48769 29183 ft 401 kts 19°
2026-04-29 00:32 54.68643 -112.45324 29179 ft 401 kts 19°
2026-04-29 00:32 54.73854 -112.41837 29179 ft 402 kts 19°
2026-04-29 00:33 54.79065 -112.38330 29178 ft 403 kts 19°
2026-04-29 00:33 54.84294 -112.34804 29181 ft 403 kts 19°
2026-04-29 00:34 54.89527 -112.31282 29171 ft 403 kts 19°
2026-04-29 00:34 54.94713 -112.27783 29176 ft 401 kts 19°
2026-04-29 00:35 54.99913 -112.24257 29170 ft 401 kts 19°
2026-04-29 00:35 55.05128 -112.20720 29166 ft 402 kts 19°
2026-04-29 00:36 55.10346 -112.17181 29163 ft 404 kts 19°
2026-04-29 00:36 55.15596 -112.13686 29155 ft 403 kts 18°
2026-04-29 00:37 55.20878 -112.10362 29155 ft 403 kts 18°
2026-04-29 00:37 55.26144 -112.06971 29150 ft 404 kts 18°
2026-04-29 00:38 55.31416 -112.03553 29154 ft 404 kts 18°
2026-04-29 00:38 55.36692 -112.00167 29151 ft 404 kts 18°
2026-04-29 00:39 55.41951 -111.96761 29144 ft 402 kts 18°
2026-04-29 00:39 55.47166 -111.93364 29152 ft 403 kts 18°
2026-04-29 00:40 55.52429 -111.89933 29148 ft 403 kts 18°
2026-04-29 00:40 55.57683 -111.86500 29149 ft 403 kts 18°
2026-04-29 00:40 55.60264 -111.84807 28965 ft 393 kts 18°
2026-04-29 00:41 55.62837 -111.83121 28455 ft 395 kts 18°
2026-04-29 00:41 55.65416 -111.81430 27955 ft 396 kts 18°
2026-04-29 00:41 55.68000 -111.79737 27481 ft 396 kts 18°
2026-04-29 00:41 55.70583 -111.78040 27041 ft 398 kts 18°
2026-04-29 00:42 55.73166 -111.76337 26578 ft 396 kts 18°
2026-04-29 00:42 55.75761 -111.74630 26125 ft 398 kts 18°
2026-04-29 00:42 55.78326 -111.72941 25679 ft 399 kts 18°
2026-04-29 00:42 55.80925 -111.71228 25245 ft 399 kts 18°
2026-04-29 00:43 55.83528 -111.69513 24809 ft 400 kts 18°
2026-04-29 00:43 55.86136 -111.67795 24387 ft 401 kts 18°
2026-04-29 00:43 55.88754 -111.66069 23964 ft 401 kts 18°
2026-04-29 00:43 55.91375 -111.64340 23509 ft 402 kts 18°
2026-04-29 00:44 55.93997 -111.62611 22997 ft 399 kts 18°
2026-04-29 00:44 55.96584 -111.60906 22510 ft 393 kts 18°
2026-04-29 00:44 55.99128 -111.59154 22020 ft 391 kts 20°
2026-04-29 00:44 56.01640 -111.57286 21548 ft 390 kts 20°
2026-04-29 00:45 56.04111 -111.55409 21068 ft 379 kts 21°
2026-04-29 00:45 56.06491 -111.53576 20476 ft 368 kts 21°
2026-04-29 00:45 56.08814 -111.51785 19856 ft 360 kts 21°
2026-04-29 00:45 56.11090 -111.50011 19231 ft 354 kts 21°
2026-04-29 00:46 56.13335 -111.48270 18621 ft 349 kts 20°
2026-04-29 00:46 56.15554 -111.46588 17952 ft 343 kts 20°
2026-04-29 00:46 56.17566 -111.45061 17286 ft 292 kts 20°
2026-04-29 00:46 56.19458 -111.43614 16591 ft 297 kts 20°
2026-04-29 00:47 56.21325 -111.42192 15943 ft 274 kts 20°
2026-04-29 00:47 56.23075 -111.40850 15278 ft 278 kts 20°
2026-04-29 00:47 56.24874 -111.39481 14651 ft 283 kts 20°
2026-04-29 00:47 56.26700 -111.38095 14048 ft 287 kts 20°
2026-04-29 00:48 56.28550 -111.36696 13388 ft 289 kts 20°
2026-04-29 00:48 56.30404 -111.35261 12721 ft 291 kts 21°
2026-04-29 00:48 56.32127 -111.33906 12071 ft 249 kts 21°
2026-04-29 00:48 56.33637 -111.32730 11367 ft 238 kts 20°
2026-04-29 00:49 56.35201 -111.31534 11025 ft 242 kts 20°
2026-04-29 00:49 56.36741 -111.30365 10779 ft 239 kts 21°
2026-04-29 00:49 56.38269 -111.29198 10509 ft 239 kts 21°
2026-04-29 00:49 56.39799 -111.28024 10233 ft 238 kts 21°
2026-04-29 00:50 56.41319 -111.26859 9965 ft 237 kts 21°
2026-04-29 00:50 56.42830 -111.25673 9630 ft 237 kts 21°
2026-04-29 00:50 56.44343 -111.24497 9294 ft 237 kts 21°
2026-04-29 00:50 56.45860 -111.23324 8964 ft 237 kts 21°
2026-04-29 00:51 56.47370 -111.22140 8663 ft 236 kts 21°
2026-04-29 00:51 56.48874 -111.20956 8367 ft 235 kts 20°
2026-04-29 00:51 56.50329 -111.19604 8049 ft 238 kts 37°
2026-04-29 00:51 56.51257 -111.17113 7739 ft 244 kts 63°
2026-04-29 00:52 56.51891 -111.14249 7453 ft 245 kts 65°
2026-04-29 00:52 56.52481 -111.11359 7172 ft 245 kts 67°
2026-04-29 00:52 56.53028 -111.08486 6902 ft 244 kts 68°
2026-04-29 00:52 56.53577 -111.05581 6630 ft 244 kts 68°
2026-04-29 00:53 56.54122 -111.02681 6362 ft 243 kts 68°
2026-04-29 00:53 56.54663 -110.99797 6100 ft 241 kts 68°
2026-04-29 00:53 56.55208 -110.96931 5832 ft 240 kts 68°
2026-04-29 00:53 56.55754 -110.94080 5590 ft 238 kts 68°
2026-04-29 00:54 56.56320 -110.91262 5337 ft 236 kts 64°
2026-04-29 00:54 56.57305 -110.88983 5029 ft 230 kts 28°
2026-04-29 00:54 56.58794 -110.88144 4821 ft 221 kts
2026-04-29 00:54 56.60261 -110.87845 4825 ft 210 kts
2026-04-29 00:55 56.61689 -110.87726 4762 ft 203 kts 359°
2026-04-29 00:55 56.63077 -110.87784 4874 ft 197 kts 349°
2026-04-29 00:55 56.64200 -110.89049 4734 ft 188 kts 306°
2026-04-29 00:55 56.64692 -110.91145 4527 ft 176 kts 289°
2026-04-29 00:56 56.64959 -110.93313 4298 ft 177 kts 282°
2026-04-29 00:56 56.65149 -110.95516 4028 ft 174 kts 278°
2026-04-29 00:56 56.65258 -110.97605 3778 ft 162 kts 275°
2026-04-29 00:56 56.65296 -110.99644 3545 ft 158 kts 273°
2026-04-29 00:57 56.65304 -111.01517 3341 ft 140 kts 271°
2026-04-29 00:57 56.65309 -111.03226 3153 ft 136 kts 272°
2026-04-29 00:57 56.65311 -111.04941 2970 ft 136 kts 272°
2026-04-29 00:57 56.65313 -111.06663 2795 ft 137 kts 271°
2026-04-29 00:58 56.65314 -111.08393 2596 ft 136 kts 272°
2026-04-29 00:58 56.65316 -111.10105 2403 ft 135 kts 272°
2026-04-29 00:58 56.65313 -111.11808 2221 ft 135 kts 271°
2026-04-29 00:58 56.65319 -111.13517 2010 ft 135 kts 272°
2026-04-29 00:59 56.65340 -111.15206 1857 ft 134 kts 271°
2026-04-29 00:59 56.65340 -111.16924 1680 ft 136 kts 267°
2026-04-29 00:59 56.65325 -111.18654 1481 ft 137 kts 268°
2026-04-29 00:59 56.65323 -111.20372 1289 ft 135 kts 268°
2026-04-29 01:00 56.65319 -111.22004 1208 ft 118 kts 268°
2026-04-29 01:00 56.65315 -111.23229 1206 ft 67 kts 270°
2026-04-29 01:00 56.65315 -111.23810 1206 ft 35 kts 270°
2026-04-29 01:00 56.65320 -111.24123 1206 ft 14 kts 289°
2026-04-29 01:01 56.65395 -111.24186 1207 ft 10 kts
2026-04-29 01:01 56.65438 -111.24111 1209 ft 9 kts 67°
2026-04-29 01:01 56.65461 -111.24014 1209 ft 8 kts 67°
2026-04-29 01:01 56.65483 -111.23914 1210 ft 9 kts 74°
2026-04-29 01:02 56.65488 -111.23813 1210 ft 5 kts 82°
2026-04-29 01:02 56.65490 -111.23767 1210 ft 7 kts 88°
2026-04-29 01:02 56.65486 -111.23652 1210 ft 11 kts 100°
2026-04-29 01:02 56.65480 -111.23482 1210 ft 16 kts 88°
2026-04-29 01:03 56.65483 -111.23277 1210 ft 16 kts 88°
2026-04-29 01:03 56.65490 -111.23077 1210 ft 16 kts 91°
2026-04-29 01:03 56.65490 -111.22881 1209 ft 15 kts 91°
2026-04-29 01:03 56.65489 -111.22694 1209 ft 15 kts 90°
2026-04-29 01:04 56.65489 -111.22509 1209 ft 14 kts 90°
2026-04-29 01:04 56.65490 -111.22341 1209 ft 12 kts 90°
2026-04-29 01:04 56.65532 -111.22241 1210 ft 9 kts 28°
2026-04-29 01:04 56.65555 -111.22267 1210 ft 4 kts 268°
2026-04-29 01:05 56.65555 -111.22269 1210 ft 0 kts 268°